User: anonymous   Login
Location: Unspecified
(0.0000°N, 0.0000°E)
Time: 17:24:05
(UTC+00:00)
Language:

LQSAT - Orbit

View from above orbital plane
View from above orbital plane
View from above satellite
View from above satellite

Ground track
Ground track

The orbit data is extracted from the following two-line orbital elements,

1 40958U 15057A   18146.15676924  .00000012  00000-0  96338-5 0  9991
2 40958  97.9402 219.7809 0019345  50.0240 310.2674 14.73031775141601
Epoch (UTC): 26 May 2018 03:45:44
Eccentricity: 0.0019345
inclination: 97.9402°
perigee height: 638 km
apogee height: 665 km
right ascension of ascending node: 219.7809°
argument of perigee: 50.0240°
revolutions per day: 14.73031775
mean anomaly at epoch: 310.2674°
orbit number at epoch: 14160

The dashed part of the orbit path shows where the satellite is in the earth's shadow,  

DLR